Content
SEND FEEDBACK

Daily
Averages
Monthly
Summary
United States of America

INARAJAN, GUAM


Home > North America > United States > Guam
Elevation: 280 feet     Latitude: 13 18N     Longitude: 144 44E

WEATHER
 
SELECT A DAY
Number of Records: 342,273;   Date Range: 1/1/95 - 8/30/14
 
SHARE

PRINT THIS DATA

[ ← Previous Day ]
WEATHER ALMANAC - JANUARY 29, 2013
[ Next Day → ]
[ °C ]   °F
Weather ElementAverageHighLow
Temperature79.5 °F82.9 °F (2:55 pm)75.2 °F (5:55 am)
Dewpoint70.1 °F72.1 °F (1:55 pm)67.1 °F (1:55 am)
Humidity73.2 %79 % (4:55 am)67 % (2:55 pm)
Barometer29.92 in29.96 in (8:55 am)29.87 in (2:21 pm)
Wind Speed16.3 mph20.7 mph (11:20 am)
Wind Gust25.3 mph (11:20 am)
Weather ElementAverage
Visibility10 mi
Wind DirectionENE (68.1 °)

Weather ElementTotal
Precipitation---
Cooling Degree Days14.1 (Base 65)
Growing Degree Days29.1 (Base 50)
Averaged from 42 records on January 29, 2013
WEATHER CONDITIONS BREAKOUT
WIND DIRECTION BREAKOUT
WEATHER BY HOUR - JANUARY 29, 2013
[ °C ]   °F
Local TimeTemperatureDewpointHumidityBarometerVisibilityWind DirectionWind SpeedGust SpeedPrecipitationEventsConditions
1:55 AM76.1 °F67.1 °F74 %29.90 in10.0 miNE (50°)12.7 mphClear
2:55 AM75.9 °F67.1 °F74 %29.88 in10.0 miNE (50°)13.8 mphClear
3:55 AM75.9 °F67.3 °F74 %29.88 in10.0 miNE (50°)12.7 mphClear
4:55 AM75.6 °F68.5 °F79 %29.89 in10.0 miNE (40°)10.4 mphClear
5:55 AM75.2 °F68.4 °F79 %29.91 in10.0 miNE (50°)12.7 mphClear
6:55 AM75.7 °F68.0 °F77 %29.93 in10.0 miNE (40°)11.5 mphClear
7:55 AM77.5 °F69.1 °F75 %29.94 in10.0 miNE (40°)15.0 mphPartly Cloudy
8:55 AM80.1 °F69.4 °F70 %29.96 in10.0 miNE (40°)15.0 mphPartly Cloudy
9:36 AM80.6 °F69.8 °F70 %29.96 in10.0 miNE (40°)16.1 mphMostly Cloudy
9:43 AM80.6 °F71.6 °F74 %29.96 in10.0 miNE (50°)13.8 mphMostly Cloudy
9:55 AM81.9 °F71.6 °F71 %29.95 in10.0 miENE (60°)12.7 mphScattered Clouds
10:55 AM81.7 °F70.9 °F70 %29.94 in10.0 miENE (60°)18.4 mphScattered Clouds
11:20 AM80.6 °F71.6 °F74 %29.93 in10.0 miENE (60°)20.7 mph25.3 mphMostly Cloudy
11:21 AM80.6 °F71.6 °F74 %29.93 in10.0 miENE (70°)18.4 mph25.3 mphScattered Clouds
11:24 AM80.6 °F71.6 °F74 %29.93 in10.0 miENE (60°)20.7 mph25.3 mphMostly Cloudy
11:29 AM82.4 °F71.6 °F70 %29.93 in10.0 miENE (70°)18.4 mph25.3 mphScattered Clouds
11:34 AM82.4 °F71.6 °F70 %29.93 in10.0 miEast (80°)20.7 mphMostly Cloudy
11:50 AM82.4 °F71.6 °F70 %29.92 in10.0 miENE (70°)19.6 mph25.3 mphMostly Cloudy
11:55 AM82.2 °F71.4 °F70 %29.92 in10.0 miEast (80°)19.6 mphScattered Clouds
12:48 PM80.6 °F71.6 °F74 %29.90 in10.0 miENE (70°)19.6 mphMostly Cloudy
12:55 PM80.4 °F71.2 °F73 %29.90 in10.0 miENE (70°)18.4 mphMostly Cloudy
12:58 PM80.6 °F71.6 °F74 %29.90 in10.0 miENE (70°)16.1 mphMostly Cloudy
12:59 PM80.6 °F71.6 °F74 %29.90 in10.0 miEast (80°)17.3 mphMostly Cloudy
1:02 PM80.6 °F71.6 °F74 %29.90 in10.0 miENE (70°)17.3 mphMostly Cloudy
1:55 PM82.2 °F72.1 °F71 %29.88 in10.0 miEast (90°)16.1 mph21.9 mphScattered Clouds
2:06 PM82.4 °F71.6 °F70 %29.88 in10.0 miEast (80°)18.4 mphMostly Cloudy
2:21 PM82.4 °F71.6 °F70 %29.87 in10.0 miEast (90°)13.8 mphScattered Clouds
2:55 PM82.9 °F70.9 °F67 %29.87 in10.0 miEast (80°)15.0 mphScattered Clouds
3:22 PM80.6 °F71.6 °F74 %29.87 in10.0 miENE (70°)18.4 mph24.2 mphMostly Cloudy
3:23 PM80.6 °F69.8 °F70 %29.87 in10.0 miENE (70°)18.4 mph24.2 mphMostly Cloudy
3:55 PM80.4 °F70.2 °F71 %29.87 in10.0 miEast (80°)18.4 mphMostly Cloudy
4:55 PM80.2 °F69.8 °F70 %29.88 in10.0 miEast (80°)15.0 mphMostly Cloudy
5:55 PM79.0 °F68.9 °F71 %29.90 in10.0 miEast (80°)18.4 mphMostly Cloudy
6:55 PM77.9 °F69.4 °F75 %29.91 in10.0 miEast (80°)16.1 mphPartly Cloudy
7:55 PM77.7 °F69.1 °F75 %29.93 in10.0 miEast (80°)16.1 mphPartly Cloudy
8:55 PM77.5 °F69.1 °F75 %29.94 in10.0 miEast (90°)15.0 mphClear
9:55 PM77.5 °F69.4 °F76 %29.96 in10.0 miEast (80°)16.1 mphScattered Clouds
10:03 PM77.0 °F69.8 °F78 %29.96 in10.0 miENE (70°)17.3 mphMostly Cloudy
10:14 PM77.0 °F69.8 °F78 %29.96 in10.0 miEast (80°)16.1 mphScattered Clouds
10:55 PM77.5 °F69.3 °F76 %29.95 in10.0 miEast (80°)13.8 mphPartly Cloudy
11:45 PM77.0 °F68.0 °F74 %29.94 in10.0 miEast (80°)13.8 mphMostly Cloudy
11:55 PM77.4 °F68.4 °F74 %29.94 in10.0 miEast (80°)15.0 mphMostly Cloudy
Hourly data recorded from PGUA, located miles away from Inarajan, Guam







STORIES FROM OUR PARTNERS